Tracking 31027 objects as of 19-Jul-2025
HD Live streaming from Space Station
objects crossing your sky now

ONEWEB-0547

Track ONEWEB-0547 now!
10-day predictions
ONEWEB-0547 is classified as:


NORAD ID: 56049
Int'l Code: 2023-043D
Perigee: 1,183.3 km
Apogee: 1,186.5 km
Inclination: 87.9 °
Period: 108.9 minutes
Semi major axis: 7555 km
RCS: Unknown
Launch date: March 26, 2023
Source: United Kingdom (UK)
Launch site: SRIHARIKOTA (SRI)
Your satellite tracking list
LANDSAT 5
Track 1 satellite(s)




NASA's NSSDC Master Catalog

Two Line Element Set (TLE):
1 56049U 23043D   25199.35260701  .00000017  00000-0  10253-4 0  9999
2 56049  87.9272 310.5699 0002092  94.5527 265.5846 13.21828077114123
Source of the keplerian elements: AFSPC